Location: Cazavet
(43.0017°N, 1.0431°E)
Time: 08:22:20
(UTC+00:00)

Cosmos 2341 Rocket - Pass Details

Date: 18 January 2026
Orbit: 967 x 1004 km, 82.9° (Epoch: 9 February)

Event Time Altitude Azimuth Distance (km) Brightness Sun altitude
Rises 06:18:14 0° 187° (S) 3,712 7.2 -11.7°
Reaches altitude 10° 06:20:45 10° 188° (S) 2,768 6.5 -11.3°
Maximum altitude 06:27:09 84° 278° (W) 1,014 4.1 -10.2°
Drops below altitude 10° 06:33:34 10° 7° (N) 2,782 6.3 -9.1°
Sets 06:36:06 0° 8° (N) 3,732 6.9 -8.6°
